| time (UTC) | temp F | wind direction | speed MPH | gust MPH | rain 1hr in | rain 24hr in | rain mn in | humidity % | barometer mb |
| 20260902134412 | 56 | 357 | 0.0 | 4.0 | 0.00 | 0.00 | 0.00 | 76 | 965.2 |
| 20260902133913 | 55 | 358 | 0.0 | 2.0 | 0.00 | 0.00 | 0.00 | 76 | 965.1 |
| 20260902133420 | 54 | 207 | 0.0 | 0.0 | 0.00 | 0.00 | 0.00 | 77 | 965.2 |
| 20260902133412 | 55 | 357 | 0.0 | 1.0 | 0.00 | 0.00 | 0.00 | 76 | 965.1 |
| 20260902132411 | 54 | 207 | 0.0 | 0.0 | 0.00 | 0.00 | 0.00 | 78 | 965.4 |
| 20260902131914 | 54 | 207 | 0.0 | 2.0 | 0.00 | 0.00 | 0.00 | 78 | 965.4 |
| 20260902131411 | 54 | 207 | 0.0 | 2.0 | 0.00 | 0.00 | 0.00 | 79 | 965.6 |
| 20260902130912 | 53 | 247 | 0.0 | 0.0 | 0.00 | 0.00 | 0.00 | 79 | 965.4 |
| 20260902130410 | 53 | 247 | 0.0 | 0.0 | 0.00 | 0.00 | 0.00 | 79 | 965.2 |
| 20260902125912 | 53 | 247 | 0.0 | 1.0 | 0.00 | 0.00 | 0.00 | 79 | 965.2 |
| 20260902125410 | 53 | 247 | 0.0 | 1.0 | 0.00 | 0.00 | 0.00 | 79 | 965.1 |
| 20260902124913 | 53 | 247 | 0.0 | 2.0 | 0.00 | 0.00 | 0.00 | 79 | 965.2 |
| 20260902124410 | 53 | 247 | 0.0 | 2.0 | 0.00 | 0.00 | 0.00 | 79 | 965.2 |
| 20260902123912 | 53 | 247 | 0.0 | 1.0 | 0.00 | 0.00 | 0.00 | 79 | 965.3 |
| 20260902123410 | 53 | 247 | 0.0 | 1.0 | 0.00 | 0.00 | 0.00 | 79 | 965.3 |
| 20260902122920 | 53 | 247 | 0.0 | 1.0 | 0.00 | 0.00 | 0.00 | 78 | 965.3 |
| 20260902122912 | 53 | 247 | 0.0 | 1.0 | 0.00 | 0.00 | 0.00 | 78 | 965.4 |
| 20260902121911 | 53 | 247 | 0.0 | 5.0 | 0.00 | 0.00 | 0.00 | 78 | 965.2 |
| 20260902121410 | 53 | 247 | 0.0 | 5.0 | 0.00 | 0.00 | 0.00 | 78 | 965.4 |
| 20260902120911 | 53 | 247 | 1.0 | 5.0 | 0.00 | 0.00 | 0.00 | 78 | 965.3 |
| 20260902120411 | 53 | 247 | 0.0 | 1.0 | 0.00 | 0.00 | 0.00 | 78 | 965.3 |
| 20260902115911 | 53 | 247 | 0.0 | 0.0 | 0.00 | 0.00 | 0.00 | 78 | 965.3 |
| 20260902115409 | 53 | 247 | 0.0 | 0.0 | 0.00 | 0.00 | 0.00 | 78 | 965.3 |
| 20260902114911 | 53 | 247 | 0.0 | 1.0 | 0.00 | 0.00 | 0.00 | 76 | 965.3 |
| 20260902114408 | 53 | 247 | 0.0 | 3.0 | 0.00 | 0.00 | 0.00 | 75 | 965.3 |
| 20260902113910 | 53 | 247 | 0.0 | 1.0 | 0.00 | 0.00 | 0.00 | 75 | 965.3 |
| 20260902113408 | 53 | 245 | 0.0 | 1.0 | 0.00 | 0.00 | 0.00 | 74 | 965.3 |
| 20260902112911 | 54 | 244 | 0.0 | 1.0 | 0.00 | 0.00 | 0.00 | 74 | 965.5 |
| 20260902112409 | 54 | 244 | 0.0 | 0.0 | 0.00 | 0.00 | 0.00 | 74 | 965.5 |
| 20260902111910 | 54 | 244 | 0.0 | 0.0 | 0.00 | 0.00 | 0.00 | 73 | 965.6 |
| 20260902111416 | 54 | 244 | 0.0 | 0.0 | 0.00 | 0.00 | 0.00 | 71 | 965.5 |
| 20260902111409 | 54 | 244 | 0.0 | 0.0 | 0.00 | 0.00 | 0.00 | 72 | 965.5 |
| 20260902110409 | 55 | 245 | 0.0 | 0.0 | 0.00 | 0.00 | 0.00 | 71 | 965.5 |
| 20260902105908 | 55 | 244 | 0.0 | 0.0 | 0.00 | 0.00 | 0.00 | 71 | 965.5 |
| 20260902105416 | 55 | 244 | 0.0 | 0.0 | 0.00 | 0.00 | 0.00 | 70 | 965.5 |
| 20260902105408 | 55 | 244 | 0.0 | 0.0 | 0.00 | 0.00 | 0.00 | 71 | 965.5 |
| 20260902104409 | 55 | 244 | 0.0 | 0.0 | 0.00 | 0.00 | 0.00 | 70 | 965.5 |
| 20260902103909 | 55 | 244 | 0.0 | 0.0 | 0.00 | 0.00 | 0.00 | 69 | 965.5 |
| 20260902103408 | 55 | 244 | 0.0 | 1.0 | 0.00 | 0.00 | 0.00 | 69 | 965.6 |
| 20260902102908 | 56 | 244 | 0.0 | 1.0 | 0.00 | 0.00 | 0.00 | 69 | 965.5 |
| 20260902102415 | 56 | 244 | 0.0 | 1.0 | 0.00 | 0.00 | 0.00 | 68 | 965.5 |
| 20260902102407 | 56 | 244 | 0.0 | 0.0 | 0.00 | 0.00 | 0.00 | 69 | 965.5 |
| 20260902101415 | 56 | 244 | 0.0 | 0.0 | 0.00 | 0.00 | 0.00 | 67 | 965.7 |
| 20260902101407 | 56 | 244 | 0.0 | 1.0 | 0.00 | 0.00 | 0.00 | 67 | 965.6 |
| 20260902101034 | 56 | 244 | 0.0 | 0.0 | 0.00 | 0.00 | 0.00 | 67 | 965.6 |
| 20260902095909 | 56 | 244 | 0.0 | 0.0 | 0.00 | 0.00 | 0.00 | 69 | 965.6 |
| 20260902095406 | 56 | 244 | 0.0 | 0.0 | 0.00 | 0.00 | 0.00 | 68 | 965.6 |
| 20260902094909 | 56 | 244 | 0.0 | 0.0 | 0.00 | 0.00 | 0.00 | 67 | 965.7 |
| 20260902094407 | 56 | 244 | 0.0 | 0.0 | 0.00 | 0.00 | 0.00 | 67 | 965.7 |
| 20260902093907 | 56 | 244 | 0.0 | 0.0 | 0.00 | 0.00 | 0.00 | 67 | 965.8 |
| 20260902093406 | 56 | 244 | 0.0 | 0.0 | 0.00 | 0.00 | 0.00 | 67 | 965.9 |
| 20260902092907 | 56 | 244 | 0.0 | 0.0 | 0.00 | 0.00 | 0.00 | 67 | 966.0 |
| 20260902092406 | 56 | 244 | 0.0 | 0.0 | 0.00 | 0.00 | 0.00 | 67 | 966.0 |
| 20260902091908 | 56 | 244 | 0.0 | 0.0 | 0.00 | 0.00 | 0.00 | 67 | 966.1 |
| 20260902091407 | 56 | 244 | 0.0 | 1.0 | 0.00 | 0.00 | 0.00 | 67 | 966.1 |
| 20260902090914 | 57 | 243 | 0.0 | 2.0 | 0.00 | 0.00 | 0.00 | 68 | 966.1 |
| 20260902090907 | 56 | 244 | 0.0 | 2.0 | 0.00 | 0.00 | 0.00 | 67 | 966.1 |
| 20260902090529 | 57 | 241 | 0.0 | 4.0 | 0.00 | 0.00 | 0.00 | 68 | 966.0 |
| 20260902085413 | 57 | 231 | 0.0 | 0.0 | 0.00 | 0.00 | 0.00 | 67 | 966.1 |
| 20260902085405 | 57 | 241 | 0.0 | 4.0 | 0.00 | 0.00 | 0.00 | 67 | 966.0 |
| 20260902085033 | 57 | 230 | 0.0 | 0.0 | 0.00 | 0.00 | 0.00 | 66 | 965.9 |
| 20260902083907 | 57 | 230 | 0.0 | 2.0 | 0.00 | 0.00 | 0.00 | 66 | 965.9 |
| 20260902083405 | 57 | 226 | 0.0 | 3.0 | 0.00 | 0.00 | 0.00 | 67 | 966.0 |
| 20260902082907 | 57 | 224 | 0.0 | 3.0 | 0.00 | 0.00 | 0.00 | 66 | 965.9 |
| 20260902082404 | 57 | 224 | 0.0 | 1.0 | 0.00 | 0.00 | 0.00 | 66 | 966.0 |
| 20260902081907 | 57 | 224 | 0.0 | 1.0 | 0.00 | 0.00 | 0.00 | 65 | 966.0 |
| 20260902081403 | 57 | 220 | 0.0 | 0.0 | 0.00 | 0.00 | 0.00 | 65 | 966.0 |
| 20260902080905 | 57 | 220 | 0.0 | 0.0 | 0.00 | 0.00 | 0.00 | 65 | 966.1 |
| 20260902080403 | 58 | 220 | 0.0 | 0.0 | 0.00 | 0.00 | 0.00 | 66 | 966.0 |
| 20260902075905 | 58 | 219 | 0.0 | 0.0 | 0.00 | 0.00 | 0.00 | 66 | 966.0 |
| 20260902075412 | 58 | 219 | 0.0 | 2.0 | 0.00 | 0.00 | 0.00 | 65 | 966.2 |
| 20260902075405 | 58 | 219 | 0.0 | 0.0 | 0.00 | 0.00 | 0.00 | 65 | 966.1 |
| 20260902074404 | 58 | 219 | 0.0 | 2.0 | 0.00 | 0.00 | 0.00 | 65 | 966.4 |
| 20260902073912 | 57 | 268 | 0.0 | 2.0 | 0.00 | 0.00 | 0.00 | 64 | 966.5 |
| 20260902073904 | 58 | 266 | 0.0 | 2.0 | 0.00 | 0.00 | 0.00 | 64 | 966.5 |
| 20260902072905 | 57 | 269 | 0.0 | 2.0 | 0.00 | 0.00 | 0.00 | 65 | 966.5 |
| 20260902072402 | 57 | 269 | 0.0 | 0.0 | 0.00 | 0.00 | 0.00 | 66 | 966.5 |
| 20260902071905 | 58 | 269 | 0.0 | 0.0 | 0.00 | 0.00 | 0.00 | 68 | 966.5 |
| 20260902071403 | 58 | 269 | 0.0 | 3.0 | 0.00 | 0.00 | 0.00 | 69 | 966.4 |
| 20260902070905 | 58 | 269 | 0.0 | 3.0 | 0.00 | 0.00 | 0.00 | 69 | 966.4 |
| 20260902070402 | 58 | 275 | 0.0 | 4.0 | 0.00 | 0.00 | 0.00 | 69 | 966.2 |
| 20260902065905 | 58 | 275 | 0.0 | 4.0 | 0.00 | 0.00 | 0.00 | 71 | 966.2 |
| 20260902065402 | 57 | 227 | 0.0 | 1.0 | 0.00 | 0.00 | 0.00 | 70 | 966.2 |
| 20260902064911 | 57 | 197 | 0.0 | 1.0 | 0.00 | 0.00 | 0.00 | 67 | 966.1 |
| 20260902064904 | 57 | 197 | 0.0 | 1.0 | 0.00 | 0.00 | 0.00 | 70 | 966.2 |
| 20260902063911 | 57 | 199 | 0.0 | 0.0 | 0.00 | 0.00 | 0.00 | 69 | 966.2 |
| 20260902063903 | 57 | 199 | 0.0 | 0.0 | 0.00 | 0.00 | 0.00 | 68 | 966.1 |
| 20260902062903 | 58 | 199 | 0.0 | 0.0 | 0.00 | 0.00 | 0.00 | 69 | 966.1 |
| 20260902062403 | 58 | 197 | 0.0 | 0.0 | 0.00 | 0.00 | 0.00 | 68 | 966.1 |
| 20260902061902 | 58 | 197 | 0.0 | 0.0 | 0.00 | 0.00 | 0.00 | 68 | 966.4 |
| 20260902061402 | 58 | 197 | 0.0 | 0.0 | 0.00 | 0.00 | 0.00 | 68 | 966.4 |
| 20260902060902 | 58 | 197 | 0.0 | 1.0 | 0.00 | 0.00 | 0.00 | 67 | 966.5 |
| 20260902060407 | 58 | 197 | 0.0 | 2.0 | 0.00 | 0.00 | 0.00 | 65 | 966.4 |
| 20260902060400 | 58 | 197 | 0.0 | 2.0 | 0.00 | 0.00 | 0.00 | 66 | 966.7 |
| 20260902055408 | 58 | 197 | 0.0 | 0.0 | 0.00 | 0.00 | 0.00 | 65 | 966.2 |
| 20260902055401 | 58 | 199 | 0.0 | 2.0 | 0.00 | 0.00 | 0.00 | 65 | 966.4 |
| 20260902054407 | 58 | 197 | 0.0 | 3.0 | 0.00 | 0.00 | 0.00 | 64 | 966.1 |
| 20260902054400 | 58 | 197 | 0.0 | 0.0 | 0.00 | 0.00 | 0.00 | 65 | 966.1 |
| 20260902053359 | 59 | 197 | 0.0 | 3.0 | 0.00 | 0.00 | 0.00 | 63 | 966.2 |
| 20260902052900 | 59 | 199 | 0.0 | 2.0 | 0.00 | 0.00 | 0.00 | 62 | 966.1 |
| 20260902052400 | 60 | 206 | 0.0 | 0.0 | 0.00 | 0.00 | 0.00 | 61 | 966.1 |
| 20260902051901 | 60 | 206 | 0.0 | 1.0 | 0.00 | 0.00 | 0.00 | 60 | 966.0 |
| 20260902051407 | 61 | 206 | 0.0 | 0.0 | 0.00 | 0.00 | 0.00 | 59 | 966.0 |
| 20260902051359 | 61 | 206 | 0.0 | 1.0 | 0.00 | 0.00 | 0.00 | 59 | 966.0 |
| 20260902050359 | 61 | 206 | 0.0 | 1.0 | 0.00 | 0.00 | 0.00 | 59 | 966.1 |
| 20260902045901 | 62 | 206 | 0.0 | 2.0 | 0.00 | 0.00 | 0.00 | 58 | 966.2 |
| 20260902045406 | 62 | 209 | 0.0 | 1.0 | 0.00 | 0.00 | 0.00 | 56 | 966.4 |
| 20260902045359 | 62 | 204 | 0.0 | 2.0 | 0.00 | 0.00 | 0.00 | 58 | 966.4 |
| 20260902044358 | 63 | 209 | 0.0 | 0.0 | 0.00 | 0.00 | 0.00 | 56 | 966.2 |
| 20260902043900 | 63 | 209 | 0.0 | 0.0 | 0.00 | 0.00 | 0.00 | 55 | 966.2 |
| 20260902043408 | 65 | 209 | 0.0 | 0.0 | 0.00 | 0.00 | 0.00 | 52 | 966.2 |
| 20260902043400 | 64 | 209 | 0.0 | 0.0 | 0.00 | 0.00 | 0.00 | 54 | 966.1 |
| 20260902042406 | 66 | 149 | 0.0 | 3.0 | 0.00 | 0.00 | 0.00 | 49 | 966.2 |
| 20260902042359 | 65 | 209 | 0.0 | 0.0 | 0.00 | 0.00 | 0.00 | 51 | 966.2 |
| 20260902042025 | 66 | 149 | 0.0 | 3.0 | 0.00 | 0.00 | 0.00 | 50 | 966.4 |
| 20260902040859 | 66 | 149 | 0.0 | 1.0 | 0.00 | 0.00 | 0.00 | 48 | 966.2 |
| 20260902040358 | 66 | 165 | 0.0 | 2.0 | 0.00 | 0.00 | 0.00 | 47 | 966.4 |
| 20260902035859 | 66 | 171 | 0.0 | 3.0 | 0.00 | 0.00 | 0.00 | 47 | 966.2 |
| 20260902035405 | 67 | 161 | 0.0 | 5.0 | 0.00 | 0.00 | 0.00 | 45 | 966.1 |
| 20260902035359 | 66 | 162 | 0.0 | 3.0 | 0.00 | 0.00 | 0.00 | 46 | 966.2 |
| 20260902035026 | 68 | 159 | 0.0 | 5.0 | 0.00 | 0.00 | 0.00 | 43 | 966.2 |
| 20260902033858 | 69 | 172 | 1.0 | 5.0 | 0.00 | 0.00 | 0.00 | 40 | 966.4 |
| 20260902033357 | 69 | 161 | 1.0 | 7.0 | 0.00 | 0.00 | 0.00 | 40 | 966.4 |
| 20260902032858 | 70 | 171 | 2.0 | 7.0 | 0.00 | 0.00 | 0.00 | 38 | 966.4 |
| 20260902032357 | 71 | 161 | 1.0 | 7.0 | 0.00 | 0.00 | 0.00 | 37 | 966.2 |
| 20260902031907 | 72 | 166 | 1.0 | 6.0 | 0.00 | 0.00 | 0.00 | 37 | 966.2 |
| 20260902031859 | 71 | 144 | 0.0 | 7.0 | 0.00 | 0.00 | 0.00 | 36 | 966.1 |
| 20260902030859 | 72 | 148 | 0.0 | 3.0 | 0.00 | 0.00 | 0.00 | 36 | 966.1 |
| 20260902030356 | 72 | 93 | 0.0 | 3.0 | 0.00 | 0.00 | 0.00 | 36 | 966.0 |
| 20260902025859 | 73 | 141 | 0.0 | 3.0 | 0.00 | 0.00 | 0.00 | 36 | 966.0 |
| 20260902025355 | 74 | 114 | 0.0 | 4.0 | 0.00 | 0.00 | 0.00 | 34 | 966.0 |
| 20260902024858 | 74 | 89 | 0.0 | 4.0 | 0.00 | 0.00 | 0.00 | 34 | 965.9 |
| 20260902023856 | 76 | 76 | 0.0 | 1.0 | 0.00 | 0.00 | 0.00 | 34 | 965.9 |
| 20260902023356 | 76 | 76 | 0.0 | 0.0 | 0.00 | 0.00 | 0.00 | 34 | 965.9 |
| 20260902022905 | 77 | 75 | 0.0 | 0.0 | 0.00 | 0.00 | 0.00 | 32 | 965.9 |
| 20260902022857 | 77 | 76 | 0.0 | 0.0 | 0.00 | 0.00 | 0.00 | 32 | 965.8 |
| 20260902021856 | 78 | 75 | 0.0 | 0.0 | 0.00 | 0.00 | 0.00 | 33 | 965.8 |
| 20260902021403 | 79 | 75 | 0.0 | 1.0 | 0.00 | 0.00 | 0.00 | 34 | 965.9 |
| 20260902021357 | 78 | 75 | 0.0 | 0.0 | 0.00 | 0.00 | 0.00 | 33 | 965.9 |
| 20260902020356 | 79 | 75 | 0.0 | 1.0 | 0.00 | 0.00 | 0.00 | 33 | 965.9 |
| 20260902015856 | 80 | 75 | 0.0 | 0.0 | 0.00 | 0.00 | 0.00 | 33 | 965.8 |
| 20260902015401 | 80 | 75 | 0.0 | 0.0 | 0.00 | 0.00 | 0.00 | 32 | 965.9 |
| 20260902015354 | 80 | 75 | 0.0 | 0.0 | 0.00 | 0.00 | 0.00 | 32 | 965.9 |
| 20260902015022 | 80 | 75 | 0.0 | 0.0 | 0.00 | 0.00 | 0.00 | 32 | 965.9 |
| 20260902013857 | 81 | 75 | 0.0 | 3.0 | 0.00 | 0.00 | 0.00 | 31 | 965.9 |
| 20260902013354 | 82 | 75 | 0.0 | 3.0 | 0.00 | 0.00 | 0.00 | 30 | 965.9 |
| 20260902012855 | 82 | 75 | 0.0 | 1.0 | 0.00 | 0.00 | 0.00 | 30 | 965.9 |
| 20260902012353 | 82 | 75 | 0.0 | 0.0 | 0.00 | 0.00 | 0.00 | 30 | 965.8 |
| 20260902011854 | 82 | 75 | 0.0 | 1.0 | 0.00 | 0.00 | 0.00 | 29 | 965.9 |
| 20260902010856 | 83 | 75 | 0.0 | 3.0 | 0.00 | 0.00 | 0.00 | 28 | 965.8 |
| 20260902010400 | 83 | 72 | 0.0 | 4.0 | 0.00 | 0.00 | 0.00 | 28 | 965.9 |
| 20260902010354 | 83 | 75 | 0.0 | 3.0 | 0.00 | 0.00 | 0.00 | 28 | 965.9 |
| 20260902005400 | 84 | 87 | 0.0 | 6.0 | 0.00 | 0.00 | 0.00 | 27 | 965.9 |
| 20260902005354 | 84 | 71 | 0.0 | 4.0 | 0.00 | 0.00 | 0.00 | 28 | 965.9 |
| 20260902005018 | 84 | 82 | 2.0 | 6.0 | 0.00 | 0.00 | 0.00 | 26 | 965.9 |
| 20260902003853 | 84 | 102 | 0.0 | 7.0 | 0.00 | 0.00 | 0.00 | 25 | 965.9 |
| 20260902003521 | 85 | 92 | 4.0 | 7.0 | 0.00 | 0.00 | 0.00 | 24 | 965.8 |
| 20260902003359 | 85 | 131 | 4.0 | 7.0 | 0.00 | 0.00 | 0.00 | 22 | 965.9 |
| 20260902003352 | 84 | 110 | 2.0 | 7.0 | 0.00 | 0.00 | 0.00 | 24 | 965.9 |
| 20260902001902 | 85 | 103 | 2.0 | 9.0 | 0.00 | 0.00 | 0.00 | 23 | 965.9 |
| 20260902001854 | 85 | 80 | 1.0 | 7.0 | 0.00 | 0.00 | 0.00 | 23 | 965.9 |
| 20260902001517 | 85 | 102 | 3.0 | 9.0 | 0.00 | 0.00 | 0.00 | 23 | 965.9 |
| 20260902000352 | 85 | 111 | 3.0 | 9.0 | 0.00 | 0.00 | 0.00 | 24 | 966.0 |
| 20260901235853 | 85 | 131 | 3.0 | 9.0 | 0.00 | 0.00 | 0.00 | 24 | 966.0 |
| 20260901235352 | 85 | 97 | 2.0 | 7.0 | 0.00 | 0.00 | 0.00 | 24 | 966.0 |
| 20260901234853 | 85 | 68 | 1.0 | 7.0 | 0.00 | 0.00 | 0.00 | 24 | 966.0 |
| 20260901234358 | 85 | 155 | 3.0 | 7.0 | 0.00 | 0.00 | 0.00 | 24 | 966.0 |
| 20260901234352 | 85 | 118 | 1.0 | 6.0 | 0.00 | 0.00 | 0.00 | 24 | 966.0 |
| 20260901233352 | 85 | 162 | 3.0 | 7.0 | 0.00 | 0.00 | 0.00 | 22 | 966.1 |
| 20260901232854 | 86 | 102 | 1.0 | 7.0 | 0.00 | 0.00 | 0.00 | 23 | 966.1 |
| 20260901232351 | 86 | 102 | 4.0 | 7.0 | 0.00 | 0.00 | 0.00 | 23 | 966.1 |
| 20260901231853 | 86 | 90 | 2.0 | 9.0 | 0.00 | 0.00 | 0.00 | 23 | 966.1 |
| 20260901231350 | 86 | 59 | 4.0 | 9.0 | 0.00 | 0.00 | 0.00 | 26 | 966.1 |
| 20260901230853 | 86 | 78 | 2.0 | 5.0 | 0.00 | 0.00 | 0.00 | 24 | 966.4 |
| 20260901230350 | 87 | 190 | 0.0 | 2.0 | 0.00 | 0.00 | 0.00 | 25 | 966.4 |
| 20260901225852 | 87 | 190 | 0.0 | 3.0 | 0.00 | 0.00 | 0.00 | 22 | 966.4 |
| 20260901225351 | 87 | 190 | 1.0 | 5.0 | 0.00 | 0.00 | 0.00 | 25 | 966.4 |
| 20260901224852 | 87 | 220 | 1.0 | 5.0 | 0.00 | 0.00 | 0.00 | 23 | 966.5 |
| 20260901224349 | 86 | 151 | 0.0 | 4.0 | 0.00 | 0.00 | 0.00 | 26 | 966.6 |
| 20260901223852 | 86 | 210 | 0.0 | 5.0 | 0.00 | 0.00 | 0.00 | 25 | 966.7 |
| 20260901223349 | 87 | 186 | 1.0 | 5.0 | 0.00 | 0.00 | 0.00 | 23 | 966.7 |
| 20260901222851 | 86 | 161 | 0.0 | 4.0 | 0.00 | 0.00 | 0.00 | 24 | 966.8 |
| 20260901222351 | 86 | 162 | 0.0 | 7.0 | 0.00 | 0.00 | 0.00 | 23 | 966.8 |
| 20260901221851 | 86 | 158 | 3.0 | 7.0 | 0.00 | 0.00 | 0.00 | 23 | 966.8 |
| 20260901221351 | 87 | 159 | 2.0 | 5.0 | 0.00 | 0.00 | 0.00 | 24 | 966.9 |
| 20260901220851 | 87 | 25 | 1.0 | 5.0 | 0.00 | 0.00 | 0.00 | 26 | 967.0 |
| 20260901220348 | 87 | 310 | 1.0 | 3.0 | 0.00 | 0.00 | 0.00 | 24 | 967.0 |
| 20260901215851 | 86 | 186 | 1.0 | 4.0 | 0.00 | 0.00 | 0.00 | 25 | 967.1 |
| 20260901215348 | 86 | 186 | 1.0 | 4.0 | 0.00 | 0.00 | 0.00 | 27 | 967.3 |
| 20260901214851 | 87 | 158 | 0.0 | 4.0 | 0.00 | 0.00 | 0.00 | 24 | 967.3 |
| 20260901214349 | 87 | 164 | 0.0 | 4.0 | 0.00 | 0.00 | 0.00 | 24 | 967.5 |
| 20260901213851 | 87 | 161 | 1.0 | 5.0 | 0.00 | 0.00 | 0.00 | 25 | 967.5 |
| 20260901213348 | 87 | 155 | 3.0 | 5.0 | 0.00 | 0.00 | 0.00 | 23 | 967.6 |
| 20260901212851 | 86 | 233 | 1.0 | 4.0 | 0.00 | 0.00 | 0.00 | 24 | 967.7 |
| 20260901212348 | 87 | 212 | 0.0 | 2.0 | 0.00 | 0.00 | 0.00 | 24 | 967.7 |
| 20260901211850 | 87 | 221 | 0.0 | 3.0 | 0.00 | 0.00 | 0.00 | 22 | 967.9 |
| 20260901211348 | 86 | 188 | 0.0 | 3.0 | 0.00 | 0.00 | 0.00 | 23 | 967.9 |
| 20260901210848 | 87 | 196 | 1.0 | 6.0 | 0.00 | 0.00 | 0.00 | 23 | 968.0 |
| 20260901210353 | 86 | 209 | 1.0 | 4.0 | 0.00 | 0.00 | 0.00 | 25 | 968.1 |
| 20260901210347 | 87 | 196 | 1.0 | 6.0 | 0.00 | 0.00 | 0.00 | 23 | 968.1 |
| 20260901205348 | 86 | 240 | 0.0 | 4.0 | 0.00 | 0.00 | 0.00 | 23 | 968.2 |
| 20260901204848 | 85 | 226 | 0.0 | 4.0 | 0.00 | 0.00 | 0.00 | 26 | 968.2 |
| 20260901204349 | 85 | 188 | 0.0 | 5.0 | 0.00 | 0.00 | 0.00 | 26 | 968.2 |
| 20260901203848 | 85 | 140 | 0.0 | 6.0 | 0.00 | 0.00 | 0.00 | 26 | 968.3 |
| 20260901203346 | 85 | 155 | 1.0 | 6.0 | 0.00 | 0.00 | 0.00 | 28 | 968.2 |
| 20260901202849 | 85 | 1 | 1.0 | 5.0 | 0.00 | 0.00 | 0.00 | 28 | 968.5 |
| 20260901202347 | 86 | 165 | 0.0 | 4.0 | 0.00 | 0.00 | 0.00 | 28 | 968.5 |
| 20260901201849 | 85 | 165 | 0.0 | 4.0 | 0.00 | 0.00 | 0.00 | 27 | 968.5 |
| 20260901201346 | 86 | 0 | 0.0 | 1.0 | 0.00 | 0.00 | 0.00 | 29 | 968.6 |
| 20260901200849 | 86 | 0 | 0.0 | 5.0 | 0.00 | 0.00 | 0.00 | 25 | 968.5 |
| 20260901200353 | 85 | 0 | 2.0 | 5.0 | 0.00 | 0.00 | 0.00 | 32 | 968.6 |
| 20260901200345 | 86 | 0 | 0.0 | 5.0 | 0.00 | 0.00 | 0.00 | 29 | 968.6 |
| 20260901195345 | 85 | 157 | 0.0 | 3.0 | 0.00 | 0.00 | 0.00 | 29 | 968.7 |
| 20260901194846 | 86 | 155 | 0.0 | 3.0 | 0.00 | 0.00 | 0.00 | 34 | 968.8 |
| 20260901194347 | 85 | 155 | 3.0 | 3.0 | 0.00 | 0.00 | 0.00 | 32 | 968.9 |
| 20260901193846 | 84 | 157 | 0.0 | 2.0 | 0.00 | 0.00 | 0.00 | 33 | 968.9 |
| 20260901193347 | 84 | 157 | 0.0 | 2.0 | 0.00 | 0.00 | 0.00 | 31 | 969.0 |
| 20260901192845 | 83 | 155 | 0.0 | 2.0 | 0.00 | 0.00 | 0.00 | 34 | 969.1 |
| 20260901192345 | 82 | 157 | 0.0 | 2.0 | 0.00 | 0.00 | 0.00 | 35 | 969.1 |
| 20260901191844 | 81 | 159 | 0.0 | 2.0 | 0.00 | 0.00 | 0.00 | 33 | 969.2 |
| 20260901191344 | 80 | 161 | 0.0 | 3.0 | 0.00 | 0.00 | 0.00 | 34 | 969.3 |
| 20260901191012 | 77 | 171 | 0.0 | 0.0 | 0.00 | 0.00 | 0.00 | 43 | 969.6 |
| 20260901190853 | 78 | 171 | 0.0 | 0.0 | 0.00 | 0.00 | 0.00 | 40 | 969.5 |
| 20260901190845 | 80 | 164 | 2.0 | 3.0 | 0.00 | 0.00 | 0.00 | 34 | 969.3 |
| 20260901190632 | 77 | 171 | 0.0 | 1.0 | 0.00 | 0.00 | 0.00 | 37 | 969.6 |
| 20260901184845 | 77 | 171 | 0.0 | 1.0 | 0.00 | 0.00 | 0.00 | 39 | 969.5 |
| 20260901184344 | 77 | 171 | 0.0 | 1.0 | 0.00 | 0.00 | 0.00 | 39 | 969.6 |
| 20260901183843 | 78 | 171 | 0.0 | 1.0 | 0.00 | 0.00 | 0.00 | 41 | 969.7 |
| 20260901183352 | 79 | 171 | 0.0 | 3.0 | 0.00 | 0.00 | 0.00 | 35 | 969.9 |
| 20260901183344 | 78 | 171 | 0.0 | 3.0 | 0.00 | 0.00 | 0.00 | 40 | 969.7 |
| 20260901182343 | 79 | 171 | 0.0 | 3.0 | 0.00 | 0.00 | 0.00 | 35 | 969.9 |
| 20260901181843 | 78 | 171 | 0.0 | 3.0 | 0.00 | 0.00 | 0.00 | 37 | 969.9 |
| 20260901181345 | 78 | 171 | 0.0 | 2.0 | 0.00 | 0.00 | 0.00 | 38 | 970.0 |
| 20260901180842 | 78 | 169 | 0.0 | 3.0 | 0.00 | 0.00 | 0.00 | 37 | 970.1 |
| 20260901180344 | 78 | 169 | 0.0 | 3.0 | 0.00 | 0.00 | 0.00 | 38 | 970.2 |
| 20260901175843 | 78 | 233 | 0.0 | 2.0 | 0.00 | 0.00 | 0.00 | 38 | 970.2 |
| 20260901175343 | 77 | 233 | 0.0 | 2.0 | 0.00 | 0.00 | 0.00 | 40 | 970.3 |
| 20260901174843 | 75 | 240 | 0.0 | 2.0 | 0.00 | 0.00 | 0.00 | 43 | 970.3 |
| 20260901174343 | 74 | 240 | 0.0 | 0.0 | 0.00 | 0.00 | 0.00 | 44 | 970.6 |
| 20260901173851 | 72 | 240 | 0.0 | 0.0 | 0.00 | 0.00 | 0.00 | 52 | 970.7 |
| 20260901173844 | 73 | 240 | 0.0 | 0.0 | 0.00 | 0.00 | 0.00 | 49 | 970.6 |
| 20260901172843 | 71 | 240 | 0.0 | 0.0 | 0.00 | 0.00 | 0.00 | 54 | 970.7 |
| 20260901172343 | 71 | 240 | 0.0 | 1.0 | 0.00 | 0.00 | 0.00 | 55 | 970.7 |
| 20260901171849 | 71 | 240 | 0.0 | 1.0 | 0.00 | 0.00 | 0.00 | 54 | 970.8 |
| 20260901171841 | 71 | 240 | 0.0 | 1.0 | 0.00 | 0.00 | 0.00 | 54 | 970.8 |
| 20260901170841 | 71 | 240 | 0.0 | 1.0 | 0.00 | 0.00 | 0.00 | 52 | 970.8 |
| 20260901170341 | 71 | 240 | 0.0 | 1.0 | 0.00 | 0.00 | 0.00 | 53 | 970.8 |
| 20260901165842 | 71 | 240 | 0.0 | 2.0 | 0.00 | 0.00 | 0.00 | 54 | 970.8 |
| 20260901165342 | 70 | 240 | 0.0 | 2.0 | 0.00 | 0.00 | 0.00 | 57 | 970.9 |
| 20260901164849 | 69 | 241 | 0.0 | 3.0 | 0.00 | 0.00 | 0.00 | 56 | 971.0 |
| 20260901164841 | 70 | 240 | 0.0 | 3.0 | 0.00 | 0.00 | 0.00 | 55 | 970.9 |
| 20260901163841 | 68 | 241 | 0.0 | 2.0 | 0.00 | 0.00 | 0.00 | 59 | 971.1 |
| 20260901163341 | 67 | 240 | 0.0 | 0.0 | 0.00 | 0.00 | 0.00 | 60 | 971.1 |
| 20260901162841 | 66 | 240 | 0.0 | 2.0 | 0.00 | 0.00 | 0.00 | 62 | 971.1 |
| 20260901162340 | 65 | 240 | 0.0 | 3.0 | 0.00 | 0.00 | 0.00 | 63 | 971.1 |
| 20260901161841 | 65 | 240 | 2.0 | 3.0 | 0.00 | 0.00 | 0.00 | 64 | 971.0 |
| 20260901161349 | 63 | 241 | 1.0 | 3.0 | 0.00 | 0.00 | 0.00 | 65 | 971.1 |
| 20260901161342 | 64 | 241 | 0.0 | 3.0 | 0.00 | 0.00 | 0.00 | 66 | 971.0 |
| 20260901160341 | 63 | 243 | 0.0 | 2.0 | 0.00 | 0.00 | 0.00 | 66 | 971.1 |
| 20260901155847 | 61 | 243 | 0.0 | 1.0 | 0.00 | 0.00 | 0.00 | 68 | 971.2 |
| 20260901155840 | 62 | 243 | 0.0 | 1.0 | 0.00 | 0.00 | 0.00 | 69 | 971.2 |
| 20260901154838 | 61 | 243 | 0.0 | 1.0 | 0.00 | 0.00 | 0.00 | 70 | 971.1 |
| 20260901154340 | 60 | 243 | 0.0 | 0.0 | 0.00 | 0.00 | 0.00 | 69 | 971.1 |
| 20260901154005 | 57 | 243 | 0.0 | 2.0 | 0.00 | 0.00 | 0.00 | 75 | 971.2 |
| 20260901153846 | 58 | 243 | 0.0 | 2.0 | 0.00 | 0.00 | 0.00 | 73 | 971.3 |
| 20260901153839 | 59 | 243 | 0.0 | 1.0 | 0.00 | 0.00 | 0.00 | 71 | 971.1 |
| 20260901153004 | 56 | 243 | 1.0 | 2.0 | 0.00 | 0.00 | 0.00 | 77 | 971.3 |
| 20260901151838 | 55 | 243 | 0.0 | 1.0 | 0.00 | 0.00 | 0.00 | 80 | 971.3 |
| 20260901151338 | 54 | 243 | 0.0 | 1.0 | 0.00 | 0.00 | 0.00 | 80 | 971.3 |
| 20260901150838 | 53 | 243 | 0.0 | 1.0 | 0.00 | 0.00 | 0.00 | 81 | 971.4 |
| 20260901150514 | 52 | 243 | 1.0 | 2.0 | 0.00 | 0.00 | 0.00 | 82 | 971.2 |
| 20260901150345 | 53 | 243 | 0.0 | 2.0 | 0.00 | 0.00 | 0.00 | 81 | 971.4 |
| 20260901150337 | 53 | 243 | 0.0 | 1.0 | 0.00 | 0.00 | 0.00 | 81 | 971.4 |
| 20260901144846 | 52 | 243 | 0.0 | 3.0 | 0.00 | 0.00 | 0.00 | 83 | 971.3 |
| 20260901144839 | 52 | 243 | 0.0 | 1.0 | 0.00 | 0.00 | 0.00 | 83 | 971.3 |
| 20260901144503 | 52 | 243 | 0.0 | 3.0 | 0.00 | 0.00 | 0.00 | 83 | 971.2 |
| 20260901144001 | 51 | 243 | 0.0 | 3.0 | 0.00 | 0.00 | 0.00 | 84 | 971.2 |
| 20260901143502 | 51 | 243 | 0.0 | 3.0 | 0.00 | 0.00 | 0.00 | 85 | 971.3 |
| 20260901142337 | 51 | 241 | 0.0 | 0.0 | 0.00 | 0.00 | 0.00 | 86 | 971.3 |
| 20260901141836 | 51 | 241 | 0.0 | 0.0 | 0.00 | 0.00 | 0.00 | 86 | 971.3 |
| 20260901141339 | 50 | 241 | 0.0 | 0.0 | 0.00 | 0.00 | 0.00 | 87 | 971.4 |
| 20260901140837 | 50 | 241 | 0.0 | 0.0 | 0.00 | 0.00 | 0.00 | 88 | 971.3 |
| 20260901140338 | 49 | 241 | 0.0 | 0.0 | 0.00 | 0.00 | 0.00 | 89 | 971.3 |
| 20260901135837 | 49 | 241 | 0.0 | 1.0 | 0.00 | 0.00 | 0.00 | 89 | 971.2 |
| 20260901135337 | 48 | 241 | 0.0 | 2.0 | 0.00 | 0.00 | 0.00 | 89 | 971.2 |